[[{"header":{"parameterUnit":"m.s-1","parameterCategory":2,"la1":30.2991,"la2":30.254,"lo1":-89.0895,"lo2":-89.0444,"dy":0.0017,"dx":0.0017,"nx":28,"ny":28,"refTime":"2024-10-11T03:00:00:Z","depth":"0","parameterNumber":2,"parameterNumberName":"U-component_of_CURRENTS"},"data":[0,0,0,0,0,0,0,0,0,0,0,0,0,0,0,0,0,0,0,0,0,0,0,0,0,0,0,0,0,0,0,0,0,0,0,0,0,0,0,0,0,0,0,0,0,0,0,0,0,0,0,0,0,0,0,0,0,0,0.3248,0.3248,0,0.3198,0.3197,0.3196,0.3144,0.3144,0.3144,0.3144,0.3099,0.3098,0.3097,0,0,0,0,0,0,0,0,0,0,0,0,0,0.3414,0.341,0.3248,0.3248,0.3248,0.3198,0.3197,0.3195,0.3144,0.3144,0.3144,0.3144,0.3099,0.3098,0.3097,0,0,0,0,0,0,0,0,0,0,0,0,0,0.3345,0.3409,0.3248,0.322,0.3218,0.3198,0.3197,0.3195,0.3145,0.3144,0.3144,0.3144,0.31,0.3098,0.3097,0.3094,0,0,0.3092,0.3092,0,0,0,0,0,0,0,0,0.3349,0.3338,0.3225,0.3222,0.322,0.3182,0.3239,0.3163,0.3145,0.3167,0.3144,0.3143,0.3131,0.3127,0.311,0.3092,0.309,0.3092,0.3091,0.3091,0.309,0,0,0,0,0,0,0,0.3354,0.3341,0.3223,0.3225,0.3222,0.325,0.3238,0.3224,0.3147,0.3165,0.3162,0.3165,0.3129,0.3112,0.3109,0.3089,0.3092,0.3091,0.309,0.3089,0.3089,0.3089,0,0,0,0,0,0,0.3364,0.3345,0.3225,0.3222,0.3291,0.3247,0.3233,0.319,0.3147,0.3142,0.3165,0.3163,0.3115,0.3111,0.3107,0.3148,0.3091,0.3089,0.3088,0.3088,0.3089,0.309,0,0,0,0,0,0,0.3367,0.3352,0.3227,0.329,0.3277,0.3244,0.3196,0.3189,0.3175,0.3149,0.3142,0.316,0.3114,0.311,0.3105,0.3144,0.3089,0.3087,0.3087,0.3088,0.3089,0.32,0,0,0,0,0,0,0.3371,0.3352,0.3334,0.3289,0.3273,0.3228,0.3196,0.3189,0.318,0.3176,0.3142,0.3137,0.3114,0.3108,0.3104,0.3141,0.3086,0.3086,0.3087,0.3089,0.3195,0.3205,0.3213,0,0,0,0,0,0.3376,0.3358,0.3332,0.3319,0.3244,0.323,0.3224,0.3199,0.3181,0.3183,0.3159,0.3138,0.3115,0.3107,0.3102,0.314,0.3085,0.3087,0.3089,0.3191,0.3203,0.3213,0,0,0,0,0,0,0.3412,0.335,0.3321,0.3279,0.3262,0.3223,0.3229,0.3205,0.3185,0.3184,0.3147,0.3141,0.3159,0.3125,0.3117,0.3142,0.3098,0.3099,0.3177,0.3188,0.3197,0.3277,0.3085,0,0,0,0,0,0.3413,0.3389,0.3335,0.3311,0.3299,0.3263,0.3256,0.3238,0.3214,0.3204,0.3178,0.3158,0.3162,0.3155,0.3147,0.3153,0.3195,0.3173,0.3182,0.319,0.3251,0.335,0.3376,0.3096,0.3096,0.3096,0,0,0.343,0.339,0.3379,0.3322,0.3301,0.3313,0.3257,0.3253,0.328,0.3205,0.3225,0.3193,0.3171,0.3189,0.3193,0.3166,0.3283,0.3193,0.32,0.3258,0.3355,0.3384,0.3409,0.3097,0.3097,0.3097,0,0,0.3464,0.3404,0.3401,0.3395,0.3372,0.3357,0.3359,0.3319,0.3315,0.3316,0.3289,0.329,0.3253,0.3272,0.3272,0.3325,0.3334,0.3297,0.3405,0.3499,0.3525,0.3548,0.3613,0.3642,0.3294,0.3294,0.3294,0,0.3489,0.3454,0.3408,0.3416,0.3423,0.3383,0.3401,0.3408,0.3379,0.3388,0.3338,0.3342,0.3312,0.3386,0.3402,0.3356,0.3398,0.3366,0.3518,0.3542,0.3564,0.3625,0.3655,0.33,0.3299,0.3298,0.3298,0,0.3525,0.3509,0.3515,0.3507,0.3517,0.3525,0.3527,0.3536,0.351,0.3508,0.3545,0.3511,0.3518,0.3499,0.3468,0.3601,0.3576,0.3528,0.3505,0.3601,0.3656,0.3686,0.3308,0.3306,0.3304,0.3302,0,0,0.3527,0.3535,0.3534,0.3545,0.3557,0.3563,0.3628,0.3653,0.3698,0.3682,0.3741,0.375,0.3726,0.373,0.3694,0.3771,0.3936,0.3724,0.3726,0.3815,0.4144,0.4043,0.4064,0.3918,0.3924,0.3929,0.4113,0,0.3557,0.3587,0.3589,0.3642,0.365,0.3661,0.3724,0.3761,0.3773,0.3826,0.3838,0.3876,0.382,0.3818,0.3902,0.3916,0.4023,0.3891,0.4018,0.4022,0.3943,0.4099,0.3865,0.4004,0.4142,0.4146,0.415,0,0.357,0.3587,0.3631,0.3681,0.3687,0.3733,0.3804,0.3857,0.3947,0.3956,0.4022,0.4026,0.4139,0.4067,0.4233,0.4148,0.4194,0.421,0.4216,0.4122,0.3979,0.3932,0.4052,0.3885,0.4195,0.4191,0.4188,0,0.3561,0.3608,0.364,0.366,0.3723,0.3758,0.3801,0.3887,0.3927,0.4058,0.409,0.4217,0.4254,0.4367,0.4391,0.4334,0.4569,0.4475,0.445,0.444,0.4271,0.4237,0.4275,0.4673,0.4673,0.4672,0.4672,0,0.3567,0.3589,0.3639,0.3659,0.3711,0.3763,0.3834,0.3898,0.3995,0.4068,0.416,0.4237,0.4338,0.4447,0.449,0.4564,0.4656,0.4543,0.4515,0.4293,0.426,0.4127,0.4068,0.4679,0.4677,0.4676,0.4675,0,0.3539,0.3572,0.3609,0.368,0.3701,0.374,0.382,0.3881,0.3978,0.4085,0.4133,0.4276,0.4423,0.4521,0.4684,0.4653,0.4604,0.476,0.4479,0.4416,0.418,0.4135,0.4113,0.3999,0.4766,0.4765,0.4764,0,0.3517,0.3535,0.3606,0.3634,0.3663,0.3721,0.3766,0.3857,0.3919,0.4098,0.4151,0.4328,0.4428,0.4616,0.4632,0.4732,0.4601,0.4558,0.4418,0.4207,0.4137,0.3993,0.3889,0.4228,0.4223,0.4219,0.4215,0,0.3486,0.3517,0.3561,0.3607,0.3652,0.3689,0.376,0.3787,0.3917,0.4,0.412,0.4218,0.4396,0.4376,0.4498,0.4512,0.4287,0.4473,0.4343,0.3833,0.3597,0.3454,0.405,0.4178,0.4182,0.4185,0.4187,0.4188,0.3461,0.3484,0.3542,0.3574,0.3617,0.3632,0.3623,0.3702,0.375,0.3826,0.4,0.4074,0.4114,0.4228,0.4227,0.4005,0.4068,0.3841,0.3842,0.3745,0.3524,0.4038,0.4066,0.4069,0.4071,0.4073,0.4075,0,0.3415,0.3456,0.35,0.3523,0.352,0.3564,0.3594,0.3552,0.355,0.3681,0.3745,0.3752,0.3701,0.3714,0.3552,0.3387,0.3236,0.3269,0.3005,0.2965,0.3495,0.3353,0.3116,0.3116,0.3116,0.3117,0.3117,0.3117,0.3402,0.3422,0.3436,0.34,0.341,0.3327,0.3306,0.3262,0.33,0.3253,0.3252,0.3324,0.3335,0.3206,0.2959,0.2875,0.2651,0.2515,0.2576,0.2907,0.2958,0.3007,0.2857,0.2521,0.2521,0.1864,0.1859,0.1856]},{"header":{"parameterUnit":"m.s-1","parameterCategory":2,"la1":30.2991,"la2":30.254,"lo1":-89.0895,"lo2":-89.0444,"dy":0.0017,"dx":0.0017,"nx":28,"ny":28,"refTime":"2024-10-11T03:00:00:Z","depth":"0","parameterNumber":3,"parameterNumberName":"V-component_of_CURRENTS"},"data":[0,0,0,0,0,0,0,0,0,0,0,0,0,0,0,0,0,0,0,0,0,0,0,0,0,0,0,0,0,0,0,0,0,0,0,0,0,0,0,0,0,0,0,0,0,0,0,0,0,0,0,0,0,0,0,0,0,0,-0.0017,-0.0017,0,-0.0045,-0.0046,-0.0046,-0.009,-0.0091,-0.0092,-0.0092,-0.017,-0.0172,-0.0173,0,0,0,0,0,0,0,0,0,0,0,0,0,-0.0023,-0.0023,-0.0016,-0.0017,-0.0017,-0.0045,-0.0046,-0.0046,-0.009,-0.0091,-0.0092,-0.0092,-0.017,-0.0171,-0.0173,0,0,0,0,0,0,0,0,0,0,0,0,0,-0.0034,-0.0023,-0.0016,-0.0041,-0.0044,-0.0045,-0.0046,-0.0046,-0.009,-0.0091,-0.0092,-0.0093,-0.0169,-0.0171,-0.0173,-0.0167,0,0,-0.018,-0.0181,0,0,0,0,0,0,0,0,-0.0034,-0.0034,-0.0037,-0.004,-0.0042,-0.0064,-0.0077,-0.0089,-0.009,-0.0074,-0.0092,-0.0093,-0.0138,-0.0142,-0.0147,-0.0171,-0.0174,-0.018,-0.0182,-0.0182,-0.0183,0,0,0,0,0,0,0,-0.0033,-0.0033,-0.0029,-0.0038,-0.004,-0.0059,-0.0062,-0.0079,-0.0102,-0.0075,-0.0078,-0.0079,-0.014,-0.0145,-0.0149,-0.0175,-0.018,-0.0182,-0.0183,-0.0184,-0.0201,-0.0201,0,0,0,0,0,0,-0.0024,-0.0032,-0.0028,-0.003,-0.0039,-0.0058,-0.0061,-0.0057,-0.01,-0.0107,-0.0078,-0.0081,-0.014,-0.0146,-0.0152,-0.0128,-0.0182,-0.0185,-0.0186,-0.0202,-0.0201,-0.02,0,0,0,0,0,0,-0.0024,-0.0023,-0.0027,-0.0031,-0.0033,-0.0057,-0.0052,-0.0057,-0.0064,-0.0102,-0.011,-0.008,-0.0141,-0.0149,-0.0165,-0.0132,-0.0185,-0.0187,-0.0203,-0.0202,-0.0201,-0.0092,0,0,0,0,0,0,-0.0024,-0.0023,-0.0018,-0.003,-0.0032,-0.0017,-0.0051,-0.0057,-0.0062,-0.0066,-0.0106,-0.0114,-0.0143,-0.0161,-0.0167,-0.0136,-0.0189,-0.0204,-0.0203,-0.0201,-0.0097,-0.0088,-0.0079,0,0,0,0,0,-0.0024,-0.0004,-0.0017,-0.0017,-0.0024,-0.0016,-0.0018,-0.004,-0.0061,-0.0052,-0.0085,-0.0113,-0.0155,-0.0162,-0.0169,-0.0138,-0.0205,-0.0203,-0.0201,-0.0101,-0.0089,-0.008,0,0,0,0,0,0,-0.0002,-0.0007,-0.0022,-0.0005,-0.0008,-0.0022,-0.0016,-0.0034,-0.0052,-0.0062,-0.0104,-0.0113,-0.0112,-0.0145,-0.0152,-0.0141,-0.0184,-0.0183,-0.0105,-0.0095,-0.0086,-0.0042,-0.0191,0,0,0,0,0,0.0005,0.0015,0.0007,0.002,0.0022,0.0002,0.0,-0.0014,-0.0031,-0.004,-0.0067,-0.0096,-0.0108,-0.0118,-0.0137,-0.0133,-0.0125,-0.0119,-0.011,-0.0102,-0.0072,-0.0024,-0.0006,-0.0194,-0.0194,-0.0194,0,0,0.0015,0.0014,0.0018,0.0024,0.0018,0.0038,-0.0001,0.0005,0.0019,-0.0045,-0.0037,-0.0066,-0.0101,-0.0092,-0.0095,-0.0116,-0.0048,-0.0099,-0.0092,-0.0066,-0.002,-0.0001,0.0016,-0.0193,-0.0193,-0.0193,0,0,0.0052,0.0042,0.0067,0.0071,0.0071,0.0063,0.0068,0.0057,0.0051,0.0052,0.0016,0.0016,-0.0021,-0.0019,-0.0029,0.0018,-0.0002,-0.0005,0.0078,0.0124,0.0141,0.0156,0.0183,0.02,-0.0,-0.0,0.0,0,0.0063,0.0094,0.0076,0.0105,0.0118,0.008,0.0116,0.0109,0.0093,0.011,0.0066,0.0068,0.0026,0.0073,0.0077,0.0044,0.0055,0.0043,0.0141,0.0155,0.0169,0.0193,0.021,0.0005,0.0005,0.0004,0.0004,0,0.0124,0.0145,0.0164,0.0186,0.0198,0.022,0.0213,0.0223,0.0203,0.0203,0.0237,0.0196,0.0208,0.0185,0.0137,0.0215,0.0186,0.015,0.0123,0.0195,0.0214,0.023,0.0013,0.0011,0.001,0.0008,0,0,0.0155,0.0199,0.0205,0.0234,0.0244,0.0265,0.0296,0.0332,0.0379,0.0354,0.0432,0.0394,0.0384,0.0374,0.033,0.0353,0.0435,0.0291,0.029,0.0335,0.0531,0.046,0.0469,0.0416,0.0419,0.0422,0.0504,0,0.0208,0.0283,0.029,0.0358,0.0394,0.0387,0.0429,0.0453,0.0464,0.0526,0.0511,0.0552,0.0453,0.0471,0.0483,0.0449,0.0482,0.0415,0.044,0.0441,0.0384,0.0488,0.0448,0.0514,0.0519,0.0522,0.0524,0,0.0265,0.0309,0.0389,0.0458,0.0477,0.0513,0.0591,0.0626,0.069,0.0707,0.0752,0.074,0.0779,0.0684,0.0699,0.0658,0.0615,0.0579,0.0581,0.0495,0.04,0.0442,0.0542,0.0382,0.0548,0.0546,0.0544,0,0.0302,0.0379,0.045,0.047,0.0539,0.0585,0.0624,0.0685,0.0742,0.084,0.0904,0.0935,0.0971,0.0934,0.0834,0.0783,0.0849,0.0771,0.0677,0.067,0.0633,0.0617,0.0602,0.0817,0.0817,0.0817,0.0817,0,0.0355,0.0409,0.0475,0.0515,0.0612,0.064,0.0752,0.0797,0.0893,0.0998,0.1006,0.11,0.1036,0.1047,0.0936,0.0862,0.0936,0.0732,0.0707,0.0664,0.0651,0.0503,0.0407,0.082,0.0819,0.0819,0.0818,0,0.0381,0.0422,0.0508,0.0597,0.0631,0.07,0.0816,0.0904,0.0981,0.1129,0.1173,0.125,0.1271,0.1188,0.1145,0.1,0.0835,0.0882,0.0823,0.0788,0.0511,0.0422,0.0398,0.0336,0.0805,0.0804,0.0803,0,0.0407,0.0454,0.0562,0.0622,0.0666,0.0768,0.085,0.0938,0.104,0.1216,0.1306,0.1385,0.1458,0.1366,0.1163,0.1013,0.0848,0.0829,0.0717,0.0529,0.0413,0.0346,0.0291,0.0712,0.0711,0.0709,0.0708,0,0.0457,0.049,0.0557,0.0675,0.0768,0.0877,0.1001,0.1091,0.1223,0.1351,0.1522,0.16,0.154,0.1401,0.1177,0.1023,0.0691,0.0795,0.0642,0.0388,0.028,0.0195,0.0603,0.0697,0.0699,0.0699,0.07,0.07,0.0491,0.054,0.0628,0.0733,0.0845,0.0978,0.1072,0.1219,0.1381,0.1591,0.1661,0.1817,0.1586,0.1294,0.1062,0.0597,0.0628,0.0427,0.0354,0.0318,0.0205,0.0572,0.0596,0.0596,0.0597,0.0597,0.0597,0,0.0529,0.0583,0.0689,0.0817,0.0934,0.0986,0.117,0.1277,0.1466,0.1695,0.1844,0.1848,0.1509,0.1151,0.0547,0.0218,0.0104,0.0037,-0.0057,-0.0078,0.0295,0.0232,0.0127,0.0127,0.0127,0.0127,0.0127,0.0128,0.0556,0.0636,0.068,0.0857,0.0955,0.1107,0.1206,0.1372,0.1558,0.1814,0.1958,0.2063,0.1758,0.0698,-0.0025,-0.0183,-0.0393,-0.0448,-0.0518,-0.0289,-0.0258,-0.0229,-0.031,-0.0527,-0.0528,-0.0864,-0.0868,-0.0871]}],[{"header":{"parameterUnit":"m.s-1","parameterCategory":2,"la1":30.2991,"la2":30.254,"lo1":-89.0895,"lo2":-89.0444,"dy":0.0017,"dx":0.0017,"nx":28,"ny":28,"refTime":"2024-10-11T03:00:00:Z","depth":"2","parameterNumber":2,"parameterNumberName":"U-component_of_CURRENTS"},"data":[0,0,0,0,0,0,0,0,0,0,0,0,0,0,0,0,0,0,0,0,0,0,0,0,0,0,0,0,0,0,0,0,0,0,0,0,0,0,0,0,0,0,0,0,0,0,0,0,0,0,0,0,0,0,0,0,0,0,0.2327,0.2328,0,0.2325,0.2325,0.2325,0.2347,0.2348,0.2349,0.2349,0.2355,0.2355,0.2354,0,0,0,0,0,0,0,0,0,0,0,0,0,0.2328,0.2328,0.2327,0.2328,0.2328,0.2325,0.2325,0.2325,0.2347,0.2348,0.2349,0.235,0.2355,0.2355,0.2354,0,0,0,0,0,0,0,0,0,0,0,0,0,0.2325,0.2328,0.2327,0.234,0.2341,0.2325,0.2325,0.2325,0.2347,0.2348,0.2349,0.235,0.2356,0.2355,0.2354,0.2325,0,0,0.2351,0.2351,0,0,0,0,0,0,0,0,0.2325,0.2325,0.2338,0.2339,0.234,0.2339,0.2327,0.2326,0.2346,0.2342,0.2349,0.2351,0.2351,0.2351,0.2345,0.2325,0.2326,0.2351,0.2351,0.235,0.235,0,0,0,0,0,0,0,0.2325,0.2325,0.2325,0.2338,0.2339,0.2338,0.2339,0.2327,0.2339,0.2343,0.2345,0.2347,0.2352,0.2345,0.2345,0.2326,0.2351,0.2351,0.235,0.235,0.2386,0.2387,0,0,0,0,0,0,0.2329,0.2325,0.2325,0.2325,0.2338,0.2337,0.2338,0.2337,0.2339,0.2341,0.2346,0.2348,0.2346,0.2346,0.2345,0.2404,0.235,0.235,0.2349,0.2384,0.2386,0.2388,0,0,0,0,0,0,0.2329,0.2329,0.2325,0.2327,0.2326,0.2336,0.2334,0.2336,0.2351,0.2342,0.2344,0.2363,0.2347,0.2347,0.2358,0.2401,0.2349,0.2348,0.2383,0.2385,0.2387,0.2461,0,0,0,0,0,0,0.2329,0.2329,0.2335,0.2327,0.2326,0.2344,0.2334,0.2335,0.235,0.2354,0.2356,0.2356,0.2348,0.2359,0.2357,0.2399,0.2348,0.2381,0.2384,0.2386,0.2456,0.2465,0.2473,0,0,0,0,0,0.2329,0.2316,0.2335,0.2335,0.2332,0.2345,0.2345,0.2354,0.235,0.2369,0.2364,0.2357,0.2376,0.2359,0.2356,0.2399,0.2379,0.2383,0.2386,0.2453,0.2463,0.2473,0,0,0,0,0,0,0.2311,0.2318,0.2337,0.2328,0.2356,0.235,0.2354,0.2363,0.237,0.2373,0.2361,0.2362,0.2395,0.2379,0.236,0.2418,0.2382,0.2385,0.2434,0.2444,0.2452,0.2492,0.2347,0,0,0,0,0,0.2313,0.2324,0.2334,0.2342,0.2344,0.2355,0.2361,0.2377,0.2379,0.2384,0.2383,0.2386,0.2401,0.2408,0.2413,0.2429,0.2452,0.246,0.2468,0.2475,0.2506,0.2553,0.2569,0.2399,0.2399,0.2398,0,0,0.2312,0.232,0.2326,0.2343,0.2353,0.2372,0.2362,0.2381,0.2412,0.2381,0.2409,0.2411,0.2411,0.2443,0.2457,0.2438,0.254,0.2479,0.2485,0.2514,0.2558,0.2575,0.259,0.2401,0.24,0.24,0,0,0.2318,0.2319,0.2333,0.2361,0.2393,0.2392,0.2405,0.2414,0.2434,0.2462,0.2456,0.2485,0.2489,0.251,0.2518,0.257,0.2581,0.2573,0.2646,0.269,0.2705,0.2718,0.2788,0.2807,0.2576,0.2576,0.2576,0,0.233,0.2331,0.2343,0.2375,0.2386,0.2404,0.2421,0.245,0.2472,0.2493,0.2488,0.2542,0.253,0.2595,0.2617,0.2593,0.2627,0.2606,0.2702,0.2716,0.2728,0.2797,0.2817,0.258,0.2579,0.2579,0.2579,0,0.2348,0.2363,0.2368,0.2413,0.2435,0.2448,0.2485,0.2522,0.2535,0.2564,0.2637,0.2644,0.2684,0.2686,0.2667,0.2756,0.2757,0.2707,0.268,0.275,0.2818,0.2837,0.2585,0.2584,0.2583,0.2582,0,0,0.2349,0.237,0.2385,0.2416,0.2446,0.2478,0.2523,0.2566,0.2606,0.2673,0.274,0.2787,0.2812,0.2826,0.2823,0.2865,0.2972,0.2832,0.2832,0.2908,0.3106,0.2966,0.2973,0.2938,0.2942,0.2944,0.3125,0,0.2362,0.2392,0.2406,0.2466,0.2469,0.2514,0.2552,0.262,0.2651,0.2725,0.2803,0.2864,0.2862,0.2891,0.2944,0.2963,0.3025,0.2931,0.3022,0.3026,0.2897,0.2991,0.2739,0.2865,0.3144,0.3147,0.3149,0,0.238,0.2388,0.2407,0.247,0.2481,0.2529,0.2592,0.2644,0.2745,0.2788,0.2893,0.2939,0.3068,0.3024,0.3172,0.3115,0.3133,0.3145,0.3151,0.3011,0.2921,0.2836,0.289,0.3182,0.3179,0.3177,0.3175,0,0.2357,0.2412,0.2413,0.2438,0.2496,0.2539,0.2583,0.2655,0.271,0.2844,0.2916,0.305,0.3152,0.3215,0.3268,0.3229,0.3402,0.3337,0.3247,0.3239,0.3039,0.3005,0.3436,0.3436,0.3436,0.3435,0.3435,0,0.2346,0.2373,0.2413,0.2432,0.2477,0.2536,0.261,0.2669,0.2766,0.2841,0.2966,0.3067,0.3202,0.3306,0.3326,0.3369,0.3462,0.3302,0.328,0.3056,0.3023,0.3293,0.3274,0.3442,0.344,0.3439,0.3438,0,0.2317,0.2334,0.2365,0.2429,0.2462,0.2508,0.2635,0.2677,0.2789,0.2898,0.2962,0.3137,0.3269,0.3371,0.3475,0.3439,0.3473,0.3448,0.3192,0.3134,0.3277,0.326,0.3399,0.3395,0.3393,0.339,0.3388,0,0.2279,0.2287,0.2365,0.2387,0.2417,0.2506,0.2545,0.267,0.2713,0.2921,0.2962,0.315,0.3222,0.3369,0.3346,0.3382,0.3446,0.3144,0.2998,0.3311,0.3277,0.3264,0.3251,0.2793,0.2786,0.2781,0.2777,0,0.2227,0.2268,0.2305,0.2332,0.2384,0.2468,0.2543,0.2598,0.2735,0.2806,0.2934,0.3011,0.3148,0.3061,0.3085,0.3062,0.3113,0.3028,0.3452,0.2805,0.2743,0.2708,0.2715,0.2728,0.2733,0.2736,0.2739,0.2741,0.22,0.2214,0.2264,0.2294,0.2349,0.2412,0.2441,0.2497,0.2564,0.2604,0.2779,0.2771,0.2819,0.2712,0.2656,0.2634,0.2834,0.2708,0.2725,0.2747,0.2609,0.254,0.2465,0.2468,0.2471,0.2474,0.2476,0,0.2148,0.2186,0.2212,0.2247,0.2257,0.2339,0.2405,0.2362,0.2344,0.2382,0.2416,0.2242,0.2183,0.2251,0.213,0.2127,0.2111,0.2051,0.2011,0.2062,0.2107,0.1933,0.1613,0.161,0.1607,0.1604,0,0,0.2139,0.2153,0.2164,0.2156,0.2178,0.2143,0.2171,0.2086,0.2056,0.1936,0.1876,0.2026,0.2138,0.1818,0.1803,0.1682,0.185,0.1619,0.2316,0.2317,0.2357,0.2498,0.2289,0,0,0,0,0]},{"header":{"parameterUnit":"m.s-1","parameterCategory":2,"la1":30.2991,"la2":30.254,"lo1":-89.0895,"lo2":-89.0444,"dy":0.0017,"dx":0.0017,"nx":28,"ny":28,"refTime":"2024-10-11T03:00:00:Z","depth":"2","parameterNumber":3,"parameterNumberName":"V-component_of_CURRENTS"},"data":[0,0,0,0,0,0,0,0,0,0,0,0,0,0,0,0,0,0,0,0,0,0,0,0,0,0,0,0,0,0,0,0,0,0,0,0,0,0,0,0,0,0,0,0,0,0,0,0,0,0,0,0,0,0,0,0,0,0,0.0072,0.0072,0,0.0054,0.0054,0.0054,0.0033,0.0033,0.0032,0.0032,-0.0011,-0.0011,-0.0012,0,0,0,0,0,0,0,0,0,0,0,0,0,0.008,0.008,0.0072,0.0072,0.0072,0.0054,0.0054,0.0054,0.0033,0.0033,0.0032,0.0032,-0.001,-0.0011,-0.0012,0,0,0,0,0,0,0,0,0,0,0,0,0,0.007,0.008,0.0072,0.006,0.0059,0.0054,0.0054,0.0054,0.0033,0.0033,0.0032,0.0032,-0.001,-0.0011,-0.0012,-0.0013,0,0,-0.0017,-0.0017,0,0,0,0,0,0,0,0,0.0071,0.007,0.0062,0.0061,0.006,0.0046,0.0041,0.003,0.0033,0.0042,0.0032,0.0032,0.0007,0.0004,0.0001,-0.0015,-0.0017,-0.0017,-0.0018,-0.0018,-0.0018,0,0,0,0,0,0,0,0.0071,0.007,0.0065,0.0062,0.006,0.0052,0.005,0.0039,0.0026,0.0041,0.004,0.0039,0.0006,0.0002,-0.0,-0.0017,-0.0017,-0.0018,-0.0019,-0.0019,-0.004,-0.0039,0,0,0,0,0,0,0.0076,0.0071,0.0065,0.0064,0.0065,0.0052,0.005,0.005,0.0027,0.0023,0.0039,0.0038,0.0005,0.0001,-0.0002,0.0,-0.0018,-0.0019,-0.002,-0.004,-0.004,-0.0039,0,0,0,0,0,0,0.0076,0.0075,0.0066,0.0068,0.0066,0.0053,0.0053,0.005,0.0046,0.0025,0.0021,0.0038,0.0004,0.0,-0.0011,-0.0002,-0.002,-0.0021,-0.004,-0.004,-0.0039,0.0001,0,0,0,0,0,0,0.0076,0.0076,0.0074,0.0068,0.0066,0.0067,0.0053,0.005,0.0046,0.0044,0.0023,0.0018,0.0004,-0.0008,-0.0012,-0.0004,-0.0022,-0.0041,-0.004,-0.004,-0.0001,0.0003,0.0006,0,0,0,0,0,0.0077,0.0082,0.0074,0.0073,0.0065,0.0067,0.0065,0.0054,0.0046,0.0048,0.0032,0.0019,-0.0008,-0.0009,-0.0013,-0.0006,-0.0041,-0.004,-0.004,-0.0002,0.0002,0.0006,0,0,0,0,0,0,0.0083,0.008,0.0072,0.0075,0.0071,0.0064,0.0065,0.0056,0.0046,0.0042,0.0022,0.0017,0.0009,-0.0004,-0.0005,-0.0011,-0.0026,-0.0026,0.0004,0.0007,0.001,0.0024,-0.0023,0,0,0,0,0,0.0084,0.0086,0.0082,0.0082,0.0084,0.0074,0.0072,0.0064,0.0055,0.005,0.0036,0.002,0.0009,0.0004,-0.0011,-0.0011,-0.0023,-0.001,-0.0006,-0.0004,0.0004,-0.0008,-0.0005,-0.0037,-0.0037,-0.0037,0,0,0.0086,0.0084,0.0084,0.0083,0.008,0.0091,0.0072,0.0072,0.0078,0.0047,0.0049,0.0029,0.001,0.0007,0.0003,-0.0002,-0.0001,-0.0003,-0.0,0.0006,-0.0007,-0.0004,-0.0001,-0.0037,-0.0037,-0.0037,0,0,0.01,0.0091,0.0103,0.0105,0.0103,0.0099,0.0102,0.0096,0.009,0.0086,0.0066,0.0055,0.0036,0.003,0.0023,0.0036,0.0013,0.0027,0.0058,0.0046,0.0049,0.0051,0.0042,0.0043,0.0032,0.0032,0.0033,0,0.01,0.0118,0.0106,0.0121,0.0131,0.0108,0.013,0.012,0.0109,0.011,0.009,0.0074,0.005,0.0059,0.0057,0.0044,0.0032,0.0046,0.0051,0.0053,0.0054,0.0044,0.0045,0.0034,0.0034,0.0034,0.0034,0,0.0132,0.0143,0.0152,0.0166,0.0172,0.0185,0.0178,0.0175,0.0161,0.0151,0.0149,0.0121,0.0116,0.0102,0.0079,0.0085,0.007,0.0053,0.0043,0.006,0.0048,0.0049,0.0037,0.0037,0.0036,0.0036,0,0,0.0149,0.0171,0.0176,0.0197,0.0201,0.0215,0.022,0.0229,0.0244,0.0214,0.0236,0.02,0.0183,0.0175,0.015,0.0132,0.0123,0.0097,0.0095,0.0092,0.0096,0.0055,0.0051,0.0103,0.0103,0.0103,0.0085,0,0.0181,0.0224,0.0227,0.0271,0.0297,0.0285,0.0301,0.0298,0.0287,0.0296,0.0261,0.0266,0.0213,0.0216,0.0189,0.0146,0.0124,0.0129,0.0077,0.0076,0.004,0.005,0.0075,0.0058,0.0084,0.0084,0.0084,0,0.0219,0.0246,0.0296,0.0338,0.035,0.0369,0.0401,0.0412,0.0404,0.0399,0.0389,0.0356,0.0337,0.0284,0.0222,0.0227,0.0163,0.0119,0.0117,0.0066,0.0034,0.0044,0.0056,0.0084,0.0084,0.0084,0.0084,0,0.0253,0.0299,0.0344,0.0357,0.0393,0.0415,0.0436,0.0441,0.0474,0.0468,0.0496,0.0447,0.0452,0.0363,0.0261,0.0242,0.0187,0.0152,0.0057,0.0053,0.0059,0.0055,0.0099,0.0099,0.0099,0.0099,0.0099,0,0.0291,0.0329,0.0364,0.0391,0.0457,0.0462,0.0529,0.0535,0.0568,0.0629,0.0561,0.0605,0.0469,0.0416,0.0299,0.0187,0.0219,0.0066,0.0046,0.0072,0.007,0.0079,0.0077,0.0098,0.0099,0.0099,0.0099,0,0.0315,0.0336,0.0396,0.0449,0.0473,0.052,0.0606,0.0656,0.0675,0.0755,0.0763,0.0733,0.0664,0.0519,0.0385,0.0257,0.0138,0.0085,0.0123,0.0106,0.0001,0.0002,-0.0022,-0.0024,-0.0025,-0.0026,-0.0027,0,0.0331,0.0361,0.0444,0.0498,0.0526,0.0601,0.0663,0.0705,0.0778,0.0848,0.0906,0.0852,0.0839,0.0625,0.0389,0.0177,0.0146,0.0042,-0.0006,0.0006,-0.0011,-0.0009,-0.0007,0.0024,0.0023,0.0023,0.0023,0,0.0367,0.0393,0.0448,0.0562,0.0639,0.0734,0.0831,0.0909,0.0976,0.1044,0.1135,0.112,0.091,0.0697,0.0375,0.0228,0.007,0.0024,0.0048,0.0039,0.0044,0.0029,0.0031,0.0019,0.002,0.002,0.002,0.002,0.04,0.0447,0.0532,0.0642,0.0735,0.0868,0.0964,0.1075,0.1202,0.1306,0.1289,0.1259,0.0999,0.0587,0.0336,0.0053,0.0055,-0.0056,-0.0052,-0.0049,-0.0051,-0.005,-0.0093,-0.0093,-0.0093,-0.0093,-0.0094,0,0.0457,0.0516,0.0617,0.0754,0.0867,0.0909,0.108,0.118,0.1339,0.1385,0.1434,0.1177,0.0933,0.0638,0.0221,-0.0034,-0.0041,-0.0114,-0.0061,-0.0056,-0.0053,-0.0054,-0.0097,-0.0097,-0.0098,-0.0099,0,0,0.0492,0.0596,0.0651,0.0849,0.0944,0.1103,0.1206,0.1339,0.141,0.1457,0.1412,0.1342,0.0991,0.0688,0.0363,0.0134,0.0093,0.0085,0.0113,0.0218,0.0225,0.0003,0.0009,0,0,0,0,0]}],[{"header":{"parameterUnit":"m.s-1","parameterCategory":2,"la1":30.2991,"la2":30.254,"lo1":-89.0895,"lo2":-89.0444,"dy":0.0017,"dx":0.0017,"nx":28,"ny":28,"refTime":"2024-10-11T03:00:00:Z","depth":"4","parameterNumber":2,"parameterNumberName":"U-component_of_CURRENTS"},"data":[0,0,0,0,0,0,0,0,0,0,0,0,0,0,0,0,0,0,0,0,0,0,0,0,0,0,0,0,0,0,0,0,0,0,0,0,0,0,0,0,0,0,0,0,0,0,0,0,0,0,0,0,0,0,0,0,0,0,0.129,0.129,0,0.1348,0.1348,0.1349,0.1398,0.1398,0.1399,0.1399,0.1472,0.1473,0.1474,0,0,0,0,0,0,0,0,0,0,0,0,0,0.1196,0.1197,0.129,0.1291,0.1291,0.1348,0.1348,0.1349,0.1397,0.1398,0.1399,0.14,0.1471,0.1473,0.1475,0,0,0,0,0,0,0,0,0,0,0,0,0,0.1242,0.1198,0.129,0.1323,0.1327,0.1348,0.1348,0.1349,0.1397,0.1398,0.1399,0.14,0.1471,0.1473,0.1475,0.1468,0,0,0.1481,0.1482,0,0,0,0,0,0,0,0,0.124,0.1246,0.1317,0.1321,0.1325,0.1368,0.1342,0.139,0.1397,0.1369,0.1399,0.1401,0.1438,0.1443,0.145,0.1471,0.1474,0.1481,0.1482,0.1483,0.1484,0,0,0,0,0,0,0,0.1236,0.1243,0.1311,0.1318,0.1323,0.1327,0.1335,0.1351,0.1397,0.1372,0.1376,0.1384,0.1441,0.1448,0.1452,0.1475,0.1481,0.1483,0.1484,0.1485,0.1585,0.1587,0,0,0,0,0,0,0.1232,0.124,0.131,0.1313,0.1285,0.1328,0.1337,0.1352,0.1397,0.1405,0.1383,0.1386,0.1444,0.145,0.1455,0.1528,0.1483,0.1485,0.1486,0.1584,0.1586,0.1587,0,0,0,0,0,0,0.123,0.1238,0.1307,0.1279,0.1288,0.1329,0.1345,0.1353,0.1392,0.1405,0.1414,0.1419,0.1445,0.1452,0.1495,0.1528,0.1486,0.1488,0.1582,0.1584,0.1586,0.1623,0,0,0,0,0,0,0.1227,0.1237,0.1259,0.1279,0.129,0.1335,0.1345,0.1353,0.1394,0.14,0.1438,0.1444,0.1446,0.1492,0.1497,0.153,0.1489,0.158,0.1583,0.1586,0.162,0.1627,0.1632,0,0,0,0,0,0.1224,0.1241,0.126,0.1269,0.1314,0.1336,0.1342,0.1373,0.1396,0.1413,0.1444,0.1445,0.1514,0.1495,0.15,0.1535,0.1579,0.1582,0.1585,0.1618,0.1625,0.1632,0,0,0,0,0,0,0.1209,0.1248,0.1269,0.1298,0.1326,0.1345,0.1368,0.1391,0.1429,0.1445,0.1459,0.1467,0.1516,0.1522,0.1501,0.1573,0.1548,0.1553,0.1571,0.1578,0.1584,0.1583,0.1491,0,0,0,0,0,0.1216,0.1247,0.1276,0.1304,0.1319,0.1352,0.1371,0.1394,0.1423,0.1443,0.147,0.1502,0.1528,0.1551,0.157,0.1609,0.1619,0.1637,0.1643,0.1647,0.1651,0.1699,0.1709,0.1598,0.1598,0.1598,0,0,0.1216,0.1246,0.1262,0.1305,0.133,0.1353,0.1366,0.1404,0.1433,0.1443,0.1499,0.1522,0.1542,0.1584,0.1608,0.1598,0.1684,0.1652,0.1655,0.1657,0.1704,0.1714,0.1724,0.16,0.16,0.1599,0,0,0.1222,0.1261,0.1285,0.1311,0.1357,0.1374,0.1393,0.1432,0.1463,0.151,0.1528,0.1572,0.1614,0.1635,0.165,0.1701,0.171,0.1716,0.1751,0.1797,0.1807,0.1815,0.1838,0.1848,0.1724,0.1724,0.1724,0,0.1223,0.1256,0.1294,0.1322,0.1343,0.1387,0.1408,0.1444,0.1496,0.1525,0.1535,0.1616,0.1635,0.1688,0.1709,0.1714,0.1737,0.172,0.1804,0.1813,0.1821,0.1842,0.1853,0.1726,0.1726,0.1726,0.1726,0,0.124,0.1273,0.1289,0.1341,0.1369,0.1395,0.1441,0.1487,0.1531,0.1565,0.1636,0.1666,0.1718,0.1733,0.1739,0.181,0.1806,0.1802,0.1784,0.1834,0.1854,0.1864,0.1729,0.1729,0.1728,0.1727,0,0,0.1224,0.1285,0.1296,0.1316,0.138,0.1399,0.146,0.1514,0.156,0.1624,0.1683,0.1739,0.1774,0.1793,0.1816,0.1857,0.1931,0.1862,0.1864,0.1879,0.203,0.1889,0.1886,0.195,0.1952,0.1954,0.2019,0,0.1226,0.126,0.1301,0.1341,0.1355,0.1417,0.1467,0.1532,0.1587,0.1658,0.172,0.1784,0.1793,0.1833,0.1879,0.1921,0.1962,0.1913,0.1983,0.1985,0.1849,0.1895,0.1961,0.2026,0.2029,0.2031,0.2032,0,0.1229,0.1252,0.1278,0.1334,0.135,0.1389,0.1471,0.1525,0.1633,0.1682,0.1765,0.1819,0.191,0.1905,0.2009,0.1984,0.2016,0.2036,0.2039,0.19,0.1863,0.1968,0.2051,0.2049,0.2048,0.2046,0.2045,0,0.1181,0.1236,0.1253,0.1272,0.1346,0.1386,0.144,0.1536,0.1597,0.1714,0.1768,0.1873,0.1943,0.2007,0.2069,0.2057,0.2163,0.2147,0.2045,0.2035,0.2126,0.2116,0.2216,0.2216,0.2216,0.2216,0.2216,0,0.1149,0.1171,0.1237,0.1247,0.1285,0.1362,0.1424,0.1494,0.1615,0.1681,0.1788,0.1845,0.1978,0.2054,0.2094,0.2098,0.2191,0.2054,0.2045,0.2139,0.213,0.2133,0.2122,0.2218,0.2218,0.2217,0.2217,0,0.1089,0.1133,0.116,0.1235,0.126,0.1296,0.1412,0.1454,0.1583,0.1675,0.1727,0.1867,0.1954,0.2051,0.2154,0.211,0.2137,0.2115,0.2208,0.2203,0.197,0.1962,0.2,0.1996,0.1992,0.1989,0.1987,0,0.1047,0.1052,0.1131,0.1147,0.1183,0.1248,0.1284,0.1421,0.1473,0.166,0.169,0.1833,0.1908,0.194,0.204,0.2097,0.208,0.207,0.2015,0.1962,0.1951,0.1948,0.1944,0.1981,0.198,0.1979,0.1978,0,0.0956,0.1004,0.1027,0.1068,0.1104,0.1134,0.1208,0.1244,0.1405,0.1538,0.1628,0.1697,0.1782,0.1859,0.1919,0.1954,0.2061,0.2031,0.2038,0.1987,0.1939,0.1931,0.1931,0.1965,0.1967,0.1968,0.1969,0,0.0896,0.0883,0.093,0.0969,0.1012,0.1016,0.1061,0.1133,0.1218,0.1443,0.1464,0.1616,0.1759,0.1784,0.1837,0.1863,0.1837,0.1775,0.1795,0.1811,0.1718,0.1627,0.1555,0,0,0,0,0,0.0816,0.0798,0.0819,0.0849,0.0903,0.0932,0.1009,0.1068,0.1227,0.1254,0.1373,0.1453,0.1546,0.162,0.1612,0.1735,0.1827,0.1715,0.176,0.1894,0.1909,0.1817,0,0,0,0,0,0,0.0754,0.0762,0.0779,0.0767,0.0775,0.08,0.0846,0.0939,0.0974,0.1154,0.1215,0.1361,0.1471,0.1551,0.1587,0.1611,0.1607,0.1823,0.1819,0.1885,0.1899,0.1911,0.1822,0,0,0,0,0]},{"header":{"parameterUnit":"m.s-1","parameterCategory":2,"la1":30.2991,"la2":30.254,"lo1":-89.0895,"lo2":-89.0444,"dy":0.0017,"dx":0.0017,"nx":28,"ny":28,"refTime":"2024-10-11T03:00:00:Z","depth":"4","parameterNumber":3,"parameterNumberName":"V-component_of_CURRENTS"},"data":[0,0,0,0,0,0,0,0,0,0,0,0,0,0,0,0,0,0,0,0,0,0,0,0,0,0,0,0,0,0,0,0,0,0,0,0,0,0,0,0,0,0,0,0,0,0,0,0,0,0,0,0,0,0,0,0,0,0,0.0118,0.0118,0,0.0109,0.0109,0.0108,0.0109,0.0109,0.0109,0.0109,0.009,0.009,0.0089,0,0,0,0,0,0,0,0,0,0,0,0,0,0.0124,0.0124,0.0118,0.0118,0.0118,0.0109,0.0109,0.0108,0.0109,0.0109,0.0109,0.0109,0.009,0.009,0.0089,0,0,0,0,0,0,0,0,0,0,0,0,0,0.0119,0.0124,0.0118,0.0117,0.0117,0.0109,0.0109,0.0108,0.0109,0.0109,0.0109,0.0109,0.0091,0.009,0.0089,0.0079,0,0,0.0086,0.0085,0,0,0,0,0,0,0,0,0.0119,0.0119,0.0117,0.0117,0.0117,0.011,0.0104,0.0098,0.0109,0.0112,0.0109,0.0109,0.0096,0.0094,0.0092,0.0078,0.0077,0.0086,0.0085,0.0085,0.0085,0,0,0,0,0,0,0,0.012,0.0119,0.0114,0.0117,0.0117,0.0113,0.0112,0.0103,0.0102,0.0111,0.0111,0.011,0.0096,0.0093,0.0092,0.0077,0.0086,0.0085,0.0084,0.0084,0.0064,0.0064,0,0,0,0,0,0,0.0121,0.0119,0.0114,0.0114,0.0119,0.0113,0.0112,0.0112,0.0103,0.0102,0.011,0.0111,0.0095,0.0093,0.0091,0.0091,0.0085,0.0084,0.0083,0.0064,0.0064,0.0064,0,0,0,0,0,0,0.0121,0.0121,0.0115,0.0116,0.0115,0.0112,0.0112,0.0112,0.0112,0.0102,0.0101,0.0111,0.0095,0.0093,0.0088,0.0089,0.0084,0.0083,0.0064,0.0064,0.0064,0.0082,0,0,0,0,0,0,0.0122,0.0121,0.012,0.0117,0.0115,0.0114,0.0112,0.0111,0.0111,0.0111,0.0102,0.0101,0.0095,0.009,0.0087,0.0088,0.0082,0.0063,0.0064,0.0064,0.0081,0.0082,0.0083,0,0,0,0,0,0.0122,0.0123,0.012,0.0119,0.0114,0.0114,0.0114,0.0112,0.0111,0.0112,0.0108,0.0101,0.0088,0.0089,0.0086,0.0087,0.0063,0.0064,0.0064,0.0081,0.0082,0.0083,0,0,0,0,0,0,0.0122,0.0123,0.012,0.0119,0.0118,0.0115,0.0115,0.0113,0.011,0.011,0.0101,0.0099,0.0095,0.0088,0.0089,0.0081,0.0074,0.0074,0.0088,0.009,0.0091,0.0093,0.0081,0,0,0,0,0,0.0121,0.0124,0.0122,0.0121,0.0122,0.0118,0.0117,0.0116,0.0113,0.0112,0.0106,0.0099,0.0092,0.0089,0.0082,0.0077,0.0056,0.0075,0.0076,0.0077,0.0077,0.0045,0.0043,0.0064,0.0064,0.0064,0,0,0.0123,0.0121,0.0123,0.0121,0.012,0.0127,0.0118,0.0119,0.0122,0.0109,0.0112,0.0102,0.0092,0.0088,0.0085,0.0083,0.006,0.0077,0.0079,0.0077,0.0045,0.0042,0.0041,0.0064,0.0064,0.0064,0,0,0.0129,0.0124,0.0132,0.0132,0.0131,0.0131,0.0132,0.013,0.0127,0.0125,0.0118,0.0109,0.0101,0.0094,0.0089,0.009,0.0067,0.0089,0.0097,0.0066,0.0064,0.0062,0.0031,0.0026,0.009,0.009,0.009,0,0.0129,0.0138,0.0133,0.014,0.0147,0.0135,0.0149,0.0141,0.0137,0.0134,0.0129,0.0112,0.0103,0.0096,0.0098,0.0093,0.0071,0.0093,0.0067,0.0065,0.0062,0.0031,0.0025,0.0091,0.0091,0.0091,0.0091,0,0.0144,0.0151,0.0156,0.0165,0.017,0.0177,0.0173,0.0171,0.0165,0.0155,0.0144,0.0126,0.0118,0.0112,0.0106,0.0088,0.0076,0.0071,0.0063,0.0061,0.0029,0.0022,0.0092,0.0092,0.0092,0.0092,0,0,0.0151,0.0165,0.0169,0.0184,0.0186,0.0197,0.0197,0.0198,0.0203,0.0179,0.018,0.0156,0.0141,0.0134,0.012,0.0092,0.0056,0.0076,0.0074,0.0046,-0.0017,-0.0011,-0.0018,0.0044,0.0043,0.0042,-0.0033,0,0.0168,0.0193,0.0195,0.0226,0.0243,0.0237,0.0246,0.0241,0.0228,0.0222,0.0184,0.0181,0.015,0.0152,0.0114,0.0075,0.004,0.0076,-0.001,-0.0013,-0.0008,-0.0024,0.0039,-0.0037,-0.0039,-0.004,-0.0041,0,0.0185,0.0203,0.0236,0.0268,0.0277,0.0292,0.031,0.0315,0.0292,0.028,0.025,0.0223,0.0181,0.016,0.0066,0.009,0.0037,-0.0002,-0.0006,-0.0012,-0.0019,-0.0035,-0.0053,-0.0052,-0.0051,-0.005,-0.0049,0,0.0205,0.0235,0.0266,0.0276,0.0304,0.0321,0.0338,0.0332,0.0352,0.0318,0.0324,0.0254,0.0238,0.015,0.0064,0.0064,-0.0042,-0.0051,-0.0101,-0.0102,-0.0092,-0.0089,-0.0122,-0.0122,-0.0122,-0.0122,-0.0122,0,0.0224,0.0251,0.028,0.0301,0.0348,0.0355,0.0401,0.0396,0.0408,0.0433,0.0361,0.0359,0.0236,0.0163,0.0069,-0.0037,-0.0043,-0.0106,-0.0122,-0.0082,-0.0077,-0.0097,-0.0093,-0.0125,-0.0124,-0.0124,-0.0123,0,0.0239,0.0254,0.0299,0.0342,0.0359,0.0395,0.0463,0.0495,0.0489,0.0518,0.0515,0.0442,0.0338,0.0209,0.0071,-0.0011,-0.012,-0.0154,-0.0103,-0.0114,-0.0163,-0.0157,-0.0225,-0.0226,-0.0226,-0.0227,-0.0227,0,0.0247,0.0269,0.0335,0.0373,0.0397,0.0456,0.0503,0.0531,0.0571,0.0571,0.0588,0.0502,0.0434,0.0237,0.009,-0.0104,-0.0125,-0.0189,-0.0183,-0.0166,-0.0175,-0.0168,-0.0162,-0.0228,-0.0228,-0.0228,-0.0228,0,0.0269,0.0293,0.0337,0.0416,0.0475,0.0544,0.0611,0.0653,0.0684,0.0678,0.0656,0.0547,0.0428,0.0254,0.0103,-0.0034,-0.0156,-0.0194,-0.0194,-0.0189,-0.0169,-0.0176,-0.017,-0.0229,-0.0229,-0.0229,-0.0229,0,0.0295,0.0327,0.039,0.0461,0.0533,0.0609,0.0647,0.0699,0.0739,0.0737,0.0726,0.0585,0.0502,0.029,0.0152,0.0013,-0.0024,-0.007,-0.0077,-0.0078,-0.0015,0.0032,0.0016,0,0,0,0,0,0.0318,0.0362,0.043,0.0512,0.0585,0.0629,0.071,0.0743,0.0773,0.0769,0.0755,0.0643,0.0432,0.0335,0.0198,0.0133,-0.0057,-0.0033,-0.0114,-0.0237,-0.0235,-0.0187,0,0,0,0,0,0,0.0338,0.0403,0.0435,0.0538,0.0598,0.0684,0.0738,0.0762,0.0766,0.0766,0.0659,0.06,0.0395,0.0506,0.019,0.0146,0.0075,-0.0134,-0.0137,-0.0238,-0.0236,-0.0235,-0.0185,0,0,0,0,0]}]]